Tracking 21992 objects as of 26-Nov-2020
HD Live streaming from Space Station
objects crossing your sky now

FLOCK 4 EP 2

Track FLOCK 4 EP 2 now!
10-day predictions
FLOCK 4 EP 2 is classified as:


NORAD ID: 46820
Int'l Code: 2020-077H
Perigee: 511.5 km
Apogee: 530.8 km
Inclination: 97.5 °
Period: 94.9 minutes
Semi major axis: 6892 km
RCS: Unknown
Launch date: October 28, 2020
Source: United States (US)
Launch site: Rocket Lab Launch Complex (RLLC)
aabbcc
Your satellite tracking list
Your tracking list is empty




NASA's NSSDC Master Catalog

Two Line Element Set (TLE):
1 46820U 20077H   20331.09488082  .00001668  00000-0  86935-4 0  9990
2 46820  97.5010  31.2794 0014037 192.9260 254.4407 15.17301101  4273
Source of the keplerian elements: AFSPC